星链-37830(STARLINK-37830)
导读
STARLINK-37830(NORAD ID 69664)是SpaceX星链(Starlink)低轨宽带互联网星座的组网卫星之一,属于该公司规模化部署的V2 Mini系列通信卫星,由猎鹰9号火箭发射入轨,当前处于在轨运行状态。该卫星工作于近地轨道,搭载星间激光链路与Ku/Ka波段通信载荷,主要为全球地面、航空及海洋用户提供高速低延迟的卫星互联网接入服务,是星链星座扩展全球覆盖容量、完善网络服务能力的组成单元,设计寿命约5年,具备轨道机动与离轨处置能力。(148字)
Basic Information
目录编号:
69664
目录名称:
STARLINK-37830
国际标识:
2026-143R
轨道中心:
EARTH
卫星名称:
星链-37830
卫星全名:
星链-37830(STARLINK-37830)
卫星状态:
在轨 (已飞行75 天)
发射日期:
2026-06-21 UTC
国别 :
美国
(US)
星等 :
--
Orbit Information
| 数据来源 | 国际轨道数据 | AOE轨道数据 |
| 星历时间 | 2026-09-02T17:26:25+0800 1天前 查看轨道信息 | 2026-09-03T23:00:00+0800 10小时前 查看轨道信息 |
| 半长轴 | 6843.662km | 6843.699km |
| 偏心率 | 0.0001131 | 0.0000946 |
| 轨道倾角 | 97.283° | 97.286° |
| 近地点辐角 | 110.179° | 110.504° |
| 升交点赤经 | 288.781° | 289.997° |
| 平近点角 | 249.957° | 204.385° |
| 近地点 | 464.75km | 464.914km |
| 远地点 | 466.3km | 466.21km |
| 周期 | 93.906分钟 | 93.907分钟 |
| 每日圈数 | 15.334514 | 15.334389 |
Detailed Information
固有亮度:
5
最大亮度:
2.5
卫星平台:
Starlink V1.0
覆盖范围:
全球
运营商:
太空探索技术公司
运营商所在国:
美国
制造商(研发单位):
太空探索技术公司
制造商所在国:
美国
使用方式:
暂无
Satellite Introduction
Starlink 计划是 SpaceX 推出的全球卫星互联网项目,通过发射低轨道卫星,为全球尤其是偏远地区提供高速、低延迟的互联网服务。自 2019 年起,Starlink 已部署数千颗卫星,旨在缩小全球数字鸿沟,推动互联网普及。该项目还为军事、航空等行业提供通信支持,带来广泛经济效益。
2D Orbit Map
3D Orbit Map
Orbit Altitude Analysis Chart
Orbit Inclination Analysis Chart
Orbit Comprehensive Analysis Chart
View Comprehensive ChartConjunction Data List
| Event ID | Objects | TCA | Miss Dist (km) | Collision Risk Probability | Collision Risk Index (CRI) | Action |
|---|---|---|---|---|---|---|
| CDM_260830-150106-370006-966423 |
STARLINK-33908
(63700)
STARLINK-37830
(69664) | 2026-08-30T 15:01:38+0000 |
2.440 km
极远距离 | 1.809119E-6 低风险 | 0.4 | |
| CDM_260902-022806-223206-966421 |
STARLINK-32636
(62232)
STARLINK-37830
(69664) | 2026-09-02T 02:28:05+0000 |
2.482 km
极远距离 | 1.770875E-6 低风险 | 0.4 | |
| CDM_260905-144406-449006-966421 |
STARLINK-34505
(64490)
STARLINK-37830
(69664) | 2026-09-05T 14:44:38+0000 |
2.341 km
极远距离 | 1.536066E-6 低风险 | 0.39 | |
| CDM_260902-061306-178106-966422 |
OBJECT AY
(61781)
STARLINK-37830
(69664) | 2026-09-02T 06:13:54+0000 |
2.956 km
极远距离 | 1.380508E-6 低风险 | 0.38 |

